Regional Weather Roundup
Issued by NWS

Home | Current Version | Previous Version | Graphics & Text | Print | Product List | Glossary On
Versions: 1 2 3 4 5 6 7 8 9 10 11 12 13 14 15 16 17 18 19 20 21 22 23 24 25 26 27 28 29 30 31 32 33 34 35 36 37 38 39 40 41 42 43 44 45 46 47 48 49 50
000
ASUS43 KIND 281209
RWRIN

WEATHER ROUNDUP FOR INDIANA
NATIONAL WEATHER SERVICE INDIANAPOLIS IN
800 AM EDT WED JUN 28 2017

NOTE: "FAIR" INDICATES FEW OR NO CLOUDS BELOW 12,000 FEET WITH NO
SIGNIFICANT WEATHER AND/OR OBSTRUCTIONS TO VISIBILITY.

* - STATION DOES NOT REPORT WEATHER SUCH AS PRECIPITATION OR FOG.

+ - STATION NOT QUALITY CONTROLLED BY THE NATIONAL WEATHER SERVICE.
    USE DATA WITH CAUTION...ESPECIALLY DEWPOINT AND RELATIVE
    HUMIDITY OBSERVATIONS.

INZ001>003-010>013-019-020-281300-
NORTHWEST INDIANA

CITY           SKY/WX    TMP DP  RH WIND       PRES   REMARKS
GARY /AIRPORT/ CLOUDY    63  46  55 S10       30.02F
KNOX *+        MOSUNNY   61  37  41 S9        30.05F
LA PORTE +     CLOUDY    58  49  71 S7        30.05F
6HR MIN TEMP:  49; 6HR MAX TEMP:  58;

MICHIGAN CITY+ CLOUDY    61  46  59 S7        30.04F
MONTICELLO +   CLOUDY    59  49  69 SE7       30.06F
6HR MIN TEMP:  58; 6HR MAX TEMP:  62;

RENSSELAER +   CLOUDY    61  46  59 S9        30.05F
VALPARAISO     CLOUDY    61  50  67 S8        30.04F
6HR MIN TEMP:  56; 6HR MAX TEMP:  61;


$$

LMZ046-743>745-281300-
SOUTHERN LAKE MICHIGAN

STATION/POSITION TIME  TEMP    WIND        PRES    WAVE
                       AIR SEA DIR/SP/G            HT
                 (UTC) (F)     (DEG/KT/KT) (MB)    (FT)
BURNS HARBOR     1140   64     180/ 10/ 18 1016.9F
MICHIGAN CITY    1140   63     160/ 13/ 16   N/A
5NW MICH CITY    1200   63 66  170/ 14/ 17   N/A     2

$$

INZ004-005-014>016-021>024-281300-
NORTH CENTRAL INDIANA

CITY           SKY/WX    TMP DP  RH WIND       PRES   REMARKS
ELKHART        MOSUNNY   59  48  67 S9        30.07F
GOSHEN         CLOUDY    61  48  62 S7        30.08F
6HR MIN TEMP:  50; 6HR MAX TEMP:  61;

LOGANSPORT +   CLOUDY    59  52  77 S8        30.09F
PERU/GRISSOM   SUNNY     60  53  77 S8        30.08F
6HR MIN TEMP:  54; 6HR MAX TEMP:  60;

ROCHESTER +    CLOUDY    63  52  67 S7        30.08F
SOUTH BEND     CLOUDY    62  49  62 S10       30.06F
6HR MIN TEMP:  54; 6HR MAX TEMP:  62;

WARSAW +       MOSUNNY   59  46  63 SE3       30.09F

$$

INZ006>009-017-018-025>027-281300-
NORTHEAST INDIANA

CITY           SKY/WX    TMP DP  RH WIND       PRES   REMARKS
ANGOLA *+      SUNNY     59  48  67 CALM      30.10F
AUBURN +       SUNNY     59  50  72 CALM      30.12S
FORT WAYNE     PTSUNNY   60  52  74 S5        30.12S
6HR MIN TEMP:  53; 6HR MAX TEMP:  60;

HUNTINGTON +   SUNNY     58  51  77 S3        30.12S
6HR MIN TEMP:  52; 6HR MAX TEMP:  58;

KENDALLVILLE + SUNNY     61  51  68 S8        30.11F

$$

INZ028-029-035-036-043>045-051>053-281300-
WEST CENTRAL INDIANA

CITY           SKY/WX    TMP DP  RH WIND       PRES   REMARKS
CRAWFORDSVL +  CLOUDY    57  52  84 SE8       30.09S
6HR MIN TEMP:  50; 6HR MAX TEMP:  57;

GREENCASTLE +  CLOUDY    59  52  77 S6        30.11S
LAFAYETTE      CLOUDY    59  52  77 CALM      30.07F
6HR MIN TEMP:  52; 6HR MAX TEMP:  59;

TERRE HAUTE    CLOUDY    59  50  72 SE5       30.08F
6HR MIN TEMP:  52; 6HR MAX TEMP:  59;


$$

INZ030>032-037>040-046>048-054>057-064-065-281300-
CENTRAL INDIANA

CITY           SKY/WX    TMP DP  RH WIND       PRES   REMARKS
CP ATTERBURY + SUNNY     54  52  94 CALM      30.13F
COLUMBUS       SUNNY     55  54  94 CALM      30.14R
FRANKFORT +    CLOUDY    62  55  79 CALM      30.10F
6HR MIN TEMP:  53; 6HR MAX TEMP:  62;

GREENWOOD *+   CLOUDY    60  51  71 S8        30.13S
INDIANAPOLIS   CLOUDY    60  51  72 SE10      30.10F
6HR MIN TEMP:  55; 6HR MAX TEMP:  61;

-EAGLE CREEK   CLOUDY    61  51  70 SE5       30.11R
6HR MIN TEMP:  53; 6HR MAX TEMP:  61;

KOKOMO +       SUNNY     60  52  74 S10       30.11S
6HR MIN TEMP:  53; 6HR MAX TEMP:  60;

MARION +       SUNNY     57  52  82 S5        30.12S
MT COMFORT *+  SUNNY     57  50  77 S6        30.13S
SHELBYVILLE    SUNNY     61  51  70 S7        30.13R
6HR MIN TEMP:  51; 6HR MAX TEMP:  61;

ZIONSVILLE +   CLOUDY    58  51  77 S5        30.12S
6HR MIN TEMP:  52; 6HR MAX TEMP:  58;


$$

INZ033-034-041-042-049-050-058-059-281300-
EAST CENTRAL INDIANA

CITY           SKY/WX    TMP DP  RH WIND       PRES   REMARKS
MUNCIE         MOSUNNY   63  49  60 S7        30.13R
6HR MIN TEMP:  57; 6HR MAX TEMP:  63;

RICHMOND +     SUNNY     55  52  88 S6        30.16R HAZE

$$

INZ060-061-067>069-081>083-085>088-281300-
SOUTHWEST INDIANA

CITY           SKY/WX    TMP DP  RH WIND       PRES   REMARKS
EVANSVILLE     SUNNY     61  57  87 CALM      30.09F
6HR MIN TEMP:  56; 6HR MAX TEMP:  61;

HUNTINGBURG *+ SUNNY     61  54  77 SE7       30.11S
6HR MIN TEMP:  55; 6HR MAX TEMP:  61;

WASHINGTON +   SUNNY     58  55  89 S5        30.10F
6HR MIN TEMP:  52; 6HR MAX TEMP:  58;


$$

INZ062-063-066-070>080-084-089>092-281300-
SOUTH CENTRAL AND SOUTHEAST INDIANA

CITY           SKY/WX    TMP DP  RH WIND       PRES   REMARKS
BEDFORD +      SUNNY     59  52  77 SE3       30.12S
BLOOMINGTON    CLOUDY    60  50  69 SE8       30.11F
6HR MIN TEMP:  51; 6HR MAX TEMP:  60;

MADISON *+     SUNNY     61  52  72 CALM      30.17R
NORTH VERNON + SUNNY     59  50  72 SE3       30.15R
SEYMOUR +      SUNNY     61  54  77 SE5       30.14S

$$





USA.gov is the U.S. government's official web portal to all federal, state and local government web resources and services.